Home > Weather > Pirmasens > Past weeks

Flag for Germany Weather for the Past 2 Weeks in Pirmasens, Rhineland-Palatinate, Germany

Now
40 °F

Mostly cloudy.


Feels Like: 33 °F
Forecast: 33 / 36 °F
Wind: 12 mph from Southwest

Location: Ramstein

Current Time: Feb 9, 2016 at 11:39:37 PM

Latest Report: Feb 9, 2016 at 9:58 PM


Visibility: N/A

Pressure: 29.31 "Hg

Humidity: 78%

Dew point: 34 °F

Location of PirmasensLocation

Historic Weather in Pirmasens — Graph

°F

Pirmasens Temperature Yesterday

Maximum temperature yesterday: 47 °F (at 11:58 AM)
Minimum temperature yesterday: 41 °F (at 5:58 PM)
Average temperature yesterday: 45 °F

High & Low Weather Summary for the Past Weeks

 TemperatureHumidityPressure
High57 °F (Feb 6, 3:58 PM)100% (Jan 26, 3:58 AM)30.44 "Hg (Jan 26, 3:58 AM)
Low32 °F (Feb 5, 3:58 AM)55% (Feb 6, 3:58 PM)29.08 "Hg (Feb 9, 3:58 PM)
Average45 °F87%30.03 "Hg
* Reported Jan 25 9:58 PM — Feb 9 9:58 PM, Pirmasens, Weather by CustomWeather, © 2016

Note: Actual official high and low records may vary slightly from our data, if they occured in-between our weather recording intervals... More about our weather records

Advertising

Pirmasens Weather History for the Previous 24 Hours

 ConditionsComfort  
Time TempWeatherWind HumidityBarometerVisibility
9:58 PM
Tue, Feb 9
40 °FMostly cloudy.12 mph78%29.31 "HgN/A
9:04 PM41 °FMostly cloudy.7 mph76%29.26 "HgN/A
7:58 PM41 °FPassing clouds.14 mph76%29.23 "HgN/A
6:58 PM45 °FPassing clouds.15 mph74%29.15 "HgN/A
5:58 PM48 °FRain. Passing clouds.24 mph82%29.09 "Hg4 mi
4:58 PM47 °FScattered clouds.14 mph88%29.08 "HgN/A
3:58 PM48 °FRain. Fog.13 mph94%29.08 "Hg3 mi
3:02 PM45 °FHeavy rain. Fog.10 mph93%29.11 "Hg1 mi
2:58 PM45 °FHeavy rain. Fog.12 mph93%29.14 "Hg1 mi
1:58 PM48 °FLight rain. Fog.12 mph94%29.17 "HgN/A
1:00 PM52 °FLight rain. Overcast.14 mph82%29.20 "HgN/A
12:04 PM48 °FLight rain. More clouds than sun.14 mph94%29.26 "HgN/A
11:58 AM47 °FLight rain. More clouds than sun.16 mph97%29.29 "HgN/A
11:04 AM43 °FRain. Fog.6 mph100%29.34 "Hg2 mi
10:58 AM43 °FRain. Fog.6 mph99%29.36 "Hg2 mi
9:58 AM44 °FRain. Fog.3 mph96%29.45 "Hg6 mi
8:59 AM45 °FLight rain. Scattered clouds.12 mph87%29.49 "HgN/A
8:58 AM45 °FPassing clouds.8 mph87%29.51 "HgN/A
8:01 AM45 °FLight rain. Passing clouds.10 mph87%29.53 "HgN/A
6:58 AM45 °FPassing clouds.16 mph81%29.60 "HgN/A
5:58 AM45 °FPassing clouds.10 mph81%29.64 "HgN/A
5:00 AM45 °FPartly cloudy.14 mph81%29.62 "HgN/A
4:58 AM45 °FLight rain. Passing clouds.16 mph84%29.65 "HgN/A
4:02 AM45 °FPassing clouds.14 mph81%29.63 "HgN/A
3:00 AM45 °FLight rain. Partly cloudy.15 mph76%29.64 "HgN/A
2:58 AM45 °FPartly cloudy.15 mph77%29.66 "HgN/A
1:58 AM45 °FPartly cloudy.14 mph80%29.67 "HgN/A
12:58 AM43 °FMostly cloudy.10 mph87%29.68 "HgN/A
11:58 PM
Mon, Feb 8
45 °FPassing clouds.17 mph74%29.67 "HgN/A
Weather by CustomWeather, © 2016

See weather overviewHow to use our weather pages